Flag for Brazil Weather past 2 weeks in Curitiba, Paraná, Brazil

Now
50 °F

Passing clouds.


Feels Like: 50 °F
Forecast: 50 / 76 °F
Wind: 1 mph from Southeast

Location: Curitiba Aeroporto

Current Time: Aug 1, 2015 at 6:46:41 AM

Latest Report: Aug 1, 2015 at 6:00 AM


Visibility: 4 mi

Pressure: 30.21 "Hg (27.05 "Hg at 915m altitude)

Humidity: 100%

Dew point: 50 °F

Location of CuritibaLocation

Historic Weather in Curitiba — Graph

°F

Curitiba temperature yesterday

Maximum temperature yesterday: 77 °F (at 2:00 PM)
Minimum temperature yesterday: 43 °F (at 6:00 AM)
Average temperature yesterday: 60 °F

Past Weeks' High & Low Weather Summary

 TemperatureHumidityPressure
High77 °F (Jul 31, 2:00 PM)100% (Jul 18, 2:00 AM)30.36 "Hg (Jul 18, 2:00 AM)
Low41 °F (Jul 28, 7:00 AM)25% (Jul 31, 3:00 PM)29.98 "Hg (Jul 20, 10:00 PM)
Average58 °F81%30.21 "Hg
* Reported Jul 17 6:00 AM — Aug 1 6:00 AM, Curitiba, Weather by CustomWeather, © 2015

Note: Actual official high and low records may vary slightly from our data, if they occured in-between our weather recording intervals... More about our weather records

Advertising

Curitiba weather history for previous 24 hours

 ConditionsComfort  
Time TempWeatherWind HumidityBarometerVisibility
6:00 AM
Sat, Aug 1
50 °FPassing clouds.1 mph100%30.21 "Hg4 mi
5:00 AM54 °FPassing clouds.2 mph94%30.21 "HgN/A
4:00 AM54 °FClear.3 mph94%30.21 "Hg10 mi
3:00 AM54 °FClear.5 mph94%30.24 "Hg10 mi
2:00 AM57 °FClear.2 mph88%30.24 "Hg10 mi
1:00 AM59 °FClear.3 mph82%30.27 "Hg10 mi
12:00 AM59 °FPassing clouds.2 mph82%30.24 "HgN/A
11:00 PM
Fri, Jul 31
59 °FPassing clouds.2 mph82%30.27 "HgN/A
10:00 PM59 °FPassing clouds.5 mph77%30.24 "HgN/A
9:00 PM61 °FClear.5 mph72%30.24 "Hg10 mi
8:00 PM68 °FClear.5 mph53%30.24 "Hg10 mi
7:00 PM70 °FClear.2 mph50%30.24 "Hg10 mi
6:00 PM72 °FClear.3 mph44%30.21 "Hg10 mi
5:00 PM73 °FPassing clouds.7 mph41%30.18 "HgN/A
4:00 PM75 °FSunny.12 mph34%30.18 "Hg10 mi
3:00 PM75 °FSunny.14 mph25%30.15 "Hg10 mi
2:00 PM77 °FSunny.16 mph28%30.18 "Hg10 mi
1:00 PM75 °FSunny.12 mph31%30.18 "Hg10 mi
12:00 PM72 °FSunny.5 mph41%30.21 "Hg10 mi
11:00 AM66 °FSunny.3 mph56%30.24 "Hg10 mi
10:00 AM61 °FSunny.3 mph83%30.27 "Hg10 mi
9:00 AM54 °FFog.2 mph94%30.24 "Hg2 mi
8:00 AM46 °FFog.1 mph93%N/A1 mi
7:00 AM43 °FFog.No wind100%N/A1 mi
6:00 AM43 °FFog.2 mph100%N/A1 mi
Weather by CustomWeather, © 2015

See weather overviewHow to use our weather pages